BEIDOU 17

Last updated on Sept. 30, 2020, 5:50 a.m. UTC

1 40549U 15019A   20273.59357860 -.00000157  00000-0  00000-0 0  9999
2 40549  52.9015 319.9995 0040658 192.0211 166.8819  1.00264310 20154
UTC
Height (km)
Latitude
Longitude
Inclination
Orbital Period
UTC large
Height (km)
Speed (km/s)
/
Latitude / Longitude
Inclination (degrees)
Orbital Period (minutes)
Azimuth
Elevation
Range (km)
Doppler Factor
iOS Compass Heading
iOS Angle

Next 30 passes for location: Hong Kong

Rise time Rise Azimuth (degrees) Set time Set Azimuth (degrees) Duration Max altitude (degrees)

No matching passes for this satellites